[keps] orb09113.amsat

Ray Hoad r.hoad at att.net
Thu Apr 23 19:33:33 PDT 2009


SB KEPS @ AMSAT  $ORB09113.O
Orbital Elements  09113.OSCAR

HR AMSAT ORBITAL ELEMENTS FOR OSCAR SATELLITES
FROM WA5QGD FORT WORTH,TX April 23, 2009
Send Subscribe/unsubscribe to KEPS at 
http://www.amsat.org/mailman/listinfo/keps
BID: ORB09113.O
TO ALL RADIO AMATEURS BT

Satellite: AO-07
Catalog number: 07530
Epoch time:      09112.62332939
Element set:    0459
Inclination:      101.4312 deg
RA of node:       139.3320 deg
Eccentricity:    0.0011973
Arg of perigee:   018.7195 deg
Mean anomaly:     341.4310 deg
Mean motion:   12.53575574 rev/day
Decay rate:       -2.7e-07 rev/day^2
Epoch rev:           57575
Checksum:              285

Satellite: AO-10
Catalog number: 14129
Epoch time:      09107.02459111
Element set:    0645
Inclination:      025.9414 deg
RA of node:       161.4953 deg
Eccentricity:    0.5990263
Arg of perigee:   214.9097 deg
Mean anomaly:     084.8802 deg
Mean motion:   02.05868384 rev/day
Decay rate:      -1.20e-06 rev/day^2
Epoch rev:           19436
Checksum:              304

Satellite: UO-11
Catalog number: 14781
Epoch time:      09112.69711751
Element set:    0942
Inclination:      098.1132 deg
RA of node:       156.6575 deg
Eccentricity:    0.0009595
Arg of perigee:   150.2413 deg
Mean anomaly:     209.9323 deg
Mean motion:   14.79707821 rev/day
Decay rate:       3.95e-06 rev/day^2
Epoch rev:           34962
Checksum:              316

Satellite: RS-15
Catalog number: 23439
Epoch time:      09112.72492664
Element set:    0226
Inclination:      064.8150 deg
RA of node:       354.5051 deg
Eccentricity:    0.0147121
Arg of perigee:   062.3510 deg
Mean anomaly:     299.2258 deg
Mean motion:   11.27553307 rev/day
Decay rate:       -3.9e-07 rev/day^2
Epoch rev:           58986
Checksum:              301

Satellite: FO-29
Catalog number: 24278
Epoch time:      09112.68720272
Element set:    0025
Inclination:      098.5621 deg
RA of node:       354.1656 deg
Eccentricity:    0.0351245
Arg of perigee:   134.1127 deg
Mean anomaly:     228.9486 deg
Mean motion:   13.52943037 rev/day
Decay rate:       -2.2e-07 rev/day^2
Epoch rev:           62624
Checksum:              300

Satellite: SO-33
Catalog number: 25509
Epoch time:      09113.67546275
Element set:     437
Inclination:      031.4353 deg
RA of node:       000.7313 deg
Eccentricity:    0.0354645
Arg of perigee:   221.8998 deg
Mean anomaly:     135.4027 deg
Mean motion:   14.28253050 rev/day
Decay rate:       2.98e-06 rev/day^2
Epoch rev:           54803
Checksum:              297

Satellite: AO-40
Catalog number: 26609
Epoch time:      09109.63079107
Element set:     217
Inclination:      009.2142 deg
RA of node:       022.9259 deg
Eccentricity:    0.7963699
Arg of perigee:   196.1185 deg
Mean anomaly:     100.9271 deg
Mean motion:   01.25585250 rev/day
Decay rate:      -3.76e-06 rev/day^2
Epoch rev:            3889
Checksum:              324

Satellite: RS-22
Catalog number: 27939
Epoch time:      09113.70056999
Element set:     772
Inclination:      097.9533 deg
RA of node:       350.5319 deg
Eccentricity:    0.0012724
Arg of perigee:   307.8288 deg
Mean anomaly:     052.1765 deg
Mean motion:   14.63309955 rev/day
Decay rate:        9.1e-07 rev/day^2
Epoch rev:           29760
Checksum:              339

Satellite: VO-52
Catalog number: 28650
Epoch time:      09113.68240378
Element set:     208
Inclination:      097.7460 deg
RA of node:       177.0546 deg
Eccentricity:    0.0026619
Arg of perigee:   205.3279 deg
Mean anomaly:     154.6645 deg
Mean motion:   14.81576474 rev/day
Decay rate:       3.98e-06 rev/day^2
Epoch rev:           21457
Checksum:              332

Satellite: PO-63
Catalog number: 29712
Epoch time:      09113.74681124
Element set:     426
Inclination:      097.8329 deg
RA of node:       171.4451 deg
Eccentricity:    0.0015497
Arg of perigee:   091.6966 deg
Mean anomaly:     268.6015 deg
Mean motion:   14.80516108 rev/day
Decay rate:       5.81e-06 rev/day^2
Epoch rev:           12341
Checksum:              310

/EX
SB KEPS @ AMSAT  $ORB09113.D
Orbital Elements  09113.MICROS

HR AMSAT ORBITAL ELEMENTS FOR THE MICROSATS
FROM WA5QGD FORT WORTH,TX April 23, 2009
Send Subscribe/unsubscribe to KEPS at 
http://www.amsat.org/mailman/listinfo/keps
BID: ORB09113.D
TO ALL RADIO AMATEURS BT

Satellite: AO-16
Catalog number: 20439
Epoch time:      09112.92792670
Element set:    0588
Inclination:      098.2743 deg
RA of node:       083.8590 deg
Eccentricity:    0.0010678
Arg of perigee:   340.9637 deg
Mean anomaly:     019.1141 deg
Mean motion:   14.31821767 rev/day
Decay rate:        6.0e-08 rev/day^2
Epoch rev:           00524
Checksum:              307

Satellite: LO-19
Catalog number: 20442
Epoch time:      09113.83239799
Element set:     508
Inclination:      098.2361 deg
RA of node:       092.1929 deg
Eccentricity:    0.0011489
Arg of perigee:   333.6187 deg
Mean anomaly:     026.4410 deg
Mean motion:   14.32058111 rev/day
Decay rate:        3.7e-07 rev/day^2
Epoch rev:             553
Checksum:              291

Satellite: AO-27
Catalog number: 22825
Epoch time:      09113.82091072
Element set:     228
Inclination:      098.4321 deg
RA of node:       068.9689 deg
Eccentricity:    0.0009382
Arg of perigee:   066.6112 deg
Mean anomaly:     293.6057 deg
Mean motion:   14.29263831 rev/day
Decay rate:        2.0e-07 rev/day^2
Epoch rev:           81214
Checksum:              300

Satellite: IO-26
Catalog number: 22826
Epoch time:      09113.68069057
Element set:     951
Inclination:      098.4253 deg
RA of node:       069.6058 deg
Eccentricity:    0.0009852
Arg of perigee:   063.5340 deg
Mean anomaly:     296.6859 deg
Mean motion:   14.29515141 rev/day
Decay rate:        8.0e-08 rev/day^2
Epoch rev:           81222
Checksum:              321

Satellite: GO-32
Catalog number: 25397
Epoch time:      09112.60086630
Element set:    0876
Inclination:      098.3307 deg
RA of node:       137.9095 deg
Eccentricity:    0.0002114
Arg of perigee:   073.0682 deg
Mean anomaly:     287.0730 deg
Mean motion:   14.23157683 rev/day
Decay rate:        3.7e-07 rev/day^2
Epoch rev:           56022
Checksum:              295

Satellite: NO-44
Catalog number: 26931
Epoch time:      09112.73408748
Element set:    0151
Inclination:      067.0524 deg
RA of node:       207.2046 deg
Eccentricity:    0.0005200
Arg of perigee:   266.0779 deg
Mean anomaly:     093.9706 deg
Mean motion:   14.29553164 rev/day
Decay rate:      -2.10e-06 rev/day^2
Epoch rev:           39465
Checksum:              294

Satellite: SO-50
Catalog number: 27607
Epoch time:      09112.66100650
Element set:    0868
Inclination:      064.5589 deg
RA of node:       193.7302 deg
Eccentricity:    0.0073450
Arg of perigee:   217.7182 deg
Mean anomaly:     141.8759 deg
Mean motion:   14.71429409 rev/day
Decay rate:       -4.6e-07 rev/day^2
Epoch rev:           34050
Checksum:              305

Satellite: CO-55
Catalog number: 27844
Epoch time:      09113.69014065
Element set:     563
Inclination:      098.7143 deg
RA of node:       123.6247 deg
Eccentricity:    0.0009243
Arg of perigee:   305.6193 deg
Mean anomaly:     054.4118 deg
Mean motion:   14.20633134 rev/day
Decay rate:        4.4e-07 rev/day^2
Epoch rev:           30152
Checksum:              276

Satellite: CO-57
Catalog number: 27848
Epoch time:      09113.58964774
Element set:     509
Inclination:      098.7164 deg
RA of node:       122.5875 deg
Eccentricity:    0.0009338
Arg of perigee:   309.9970 deg
Mean anomaly:     050.0379 deg
Mean motion:   14.20435598 rev/day
Decay rate:        1.1e-07 rev/day^2
Epoch rev:           30147
Checksum:              337

Satellite: AO-51
Catalog number: 28375
Epoch time:      09112.95658019
Element set:    0372
Inclination:      098.0548 deg
RA of node:       125.7778 deg
Eccentricity:    0.0083678
Arg of perigee:   293.6187 deg
Mean anomaly:     065.6226 deg
Mean motion:   14.40639074 rev/day
Decay rate:        1.0e-08 rev/day^2
Epoch rev:           25300
Checksum:              326

Satellite: CO-56
Catalog number: 28941
Epoch time:      09113.48570857
Element set:      17
Inclination:      098.1341 deg
RA of node:       277.9387 deg
Eccentricity:    0.0098350
Arg of perigee:   338.1183 deg
Mean anomaly:     021.5882 deg
Mean motion:   15.78908395 rev/day
Decay rate:     3.6668e-04 rev/day^2
Epoch rev:           17860
Checksum:              362

Satellite: CP3
Catalog number: 31128
Epoch time:      09112.61063158
Element set:    0612
Inclination:      097.9935 deg
RA of node:       168.2393 deg
Eccentricity:    0.0104048
Arg of perigee:   097.6015 deg
Mean anomaly:     263.7025 deg
Mean motion:   14.52035384 rev/day
Decay rate:       -4.6e-07 rev/day^2
Epoch rev:           10683
Checksum:              288

Satellite: CP4
Catalog number: 31132
Epoch time:      09113.68881891
Element set:     589
Inclination:      097.9985 deg
RA of node:       172.9985 deg
Eccentricity:    0.0086893
Arg of perigee:   083.3046 deg
Mean anomaly:     277.8029 deg
Mean motion:   14.55199504 rev/day
Decay rate:        3.6e-07 rev/day^2
Epoch rev:           10710
Checksum:              351

Satellite: CO-65
Catalog number: 32785
Epoch time:      09113.75440660
Element set:     346
Inclination:      097.9504 deg
RA of node:       178.1595 deg
Eccentricity:    0.0013988
Arg of perigee:   205.5294 deg
Mean anomaly:     154.5224 deg
Mean motion:   14.81471568 rev/day
Decay rate:       1.90e-06 rev/day^2
Epoch rev:            5338
Checksum:              328

